Location: K’enk’aani
(42.3323°N, 44.4658°E)
Time: 10:47:35
(UTC+00:00)

Daily predictions for brighter satellites

Satellite Brightness Start Highest point End
(mag) Time Altitude Azimuth Time Altitude Azimuth Time Altitude Azimuth
NOSS 2-2 (E) 3.7 15:59:41 10° NNW 16:03:36 72° NE 16:09:03 10° SE
USA 234 3.4 15:57:11 10° NE 16:03:47 89° SSE 16:10:20 10° SW
Cosmos 1937 Rocket 4.4 15:59:43 10° SSE 16:04:10 28° E 16:08:37 10° NE
NOAA 6 4.2 15:59:03 10° S 16:04:10 79° WSW 16:09:17 10° NNW
Cosmos 2227 4.4 15:58:45 10° NNW 16:04:31 84° WSW 16:10:16 10° SSE
Tiangong -1.0 16:07:04 10° W 16:09:59 35° SSW 16:12:54 10° SE
COSMOS 2428 4.3 16:08:59 10° SE 16:11:36 13° E 16:14:12 10° ENE
Meteor 1-15 Rocket 4.4 16:07:52 10° SSE 16:13:11 49° E 16:18:31 10° NNE
Meteor 1-31 Rocket 3.6 16:13:45 10° SE 16:16:46 28° ENE 16:19:50 10° N
CSL-04 Rocket 4.1 16:12:12 10° SE 16:17:27 47° ENE 16:22:44 10° N
Cosmos 2278 Rocket 4.4 16:19:27 10° NNE 16:20:13 10° NE 16:20:58 10° NE
Cosmos 2333 Rocket 2.9 16:16:39 10° SW 16:22:14 59° WNW 16:27:51 10° NNE
NOSS 3-2 (A) 4.2 16:15:16 10° NNW 16:22:40 68° NE 16:31:32 10° SE
Exosat Rocket 4.4 16:19:10 10° NNW 16:24:48 53° ENE 16:32:29 10° SE
COBE Rocket 4.1 16:22:43 10° N 16:27:41 83° WNW 16:32:43 10° SSW
Cosmos 2181 Rocket 4.0 16:23:18 10° N 16:29:27 88° W 16:35:36 10° S
Cosmos 1953 2.0 16:26:03 10° S 16:29:36 89° E 16:33:13 10° N
Cosmos 1295 Rocket 4.5 16:26:34 10° S 16:32:43 86° E 16:39:00 10° N
Meteor 2-5 Rocket 3.7 16:30:01 10° N 16:35:32 68° ENE 16:41:03 10° SSE
Nadezhda 3 Rocket 4.1 16:30:22 10° N 16:36:26 57° ENE 16:42:27 10° SSE
Geosat 4.1 16:32:22 10° NE 16:37:16 53° ESE 16:42:08 10° S
Cosmos 1703 Rocket 4.1 16:37:28 10° N 16:41:31 38° ENE 16:44:37 15° SE
Cosmos 1470 Rocket 3.5 16:37:10 10° S 16:41:31 71° E 16:45:52 10° NNE
ERS-1 Rocket 3.6 16:38:04 13° SE 16:41:59 37° ENE 16:46:33 10° N
SJ-6B 4.0 16:39:52 10° S 16:43:20 41° W 16:46:50 10° NNW
ARIANE 6 FM1 Upper Stage 3.2 16:41:56 10° SW 16:46:03 60° NW 16:50:04 10° NNE
ATLAS 3B R/B 4.1 16:39:14 10° WSW 16:46:36 49° NW 16:54:13 10° NNE
Iridium 82 3.9 16:43:40 10° N 16:46:42 82° E 16:49:39 10° S
Cosmos 1943 Rocket 3.9 16:43:17 10° N 16:47:08 18° NE 16:49:58 13° E
Cosmos 2154 Rocket 4.0 16:41:04 10° S 16:47:21 85° E 16:53:44 10° N
Cosmos 1933 Rocket 4.1 16:45:04 10° SSE 16:49:03 36° E 16:53:03 10° NNE
Lacrosse 5 rocket 0.6 16:47:11 10° SW 16:50:22 61° SE 16:53:30 10° NE
Okean 1-7 3.9 16:48:22 10° NNW 16:52:19 47° W 16:56:15 10° SSW
Cosmos 1844 Rocket 4.5 16:56:15 10° NW 17:01:00 30° WSW 17:05:44 10° SSW
Cosmos 2360 Rocket 3.3 16:56:16 10° SW 17:01:39 46° WNW 17:07:05 10° NNE
Cosmos 1441 Rocket 4.4 16:59:47 10° NNW 17:02:56 36° W 17:06:02 10° SSW
Meteor 2-19 Rocket 4.5 16:57:13 10° N 17:03:21 64° E 17:08:30 15° SSE
Meteor 1-16 Rocket 4.3 16:59:29 10° S 17:05:24 86° E 17:11:21 10° N
Okean-O 3.7 17:05:56 24° E 17:06:50 26° ENE 17:10:28 10° NNE
CBERS 1 LM4 rocket 4.3 17:03:44 20° SSE 17:06:52 64° ENE 17:11:32 10° N
Helios 1A Rocket 2.8 17:04:06 10° N 17:07:18 60° WNW 17:10:27 10° SSW
Cosmos 2228 Rocket 4.0 17:02:59 10° NNW 17:07:18 49° W 17:11:35 10° SSW
Cosmos 2322 Rocket 3.8 17:04:28 10° SW 17:09:38 37° WNW 17:14:49 10° N
BREEZE-M DEB (TANK) 3.3 17:08:36 10° WNW 17:11:19 70° SSW 17:15:16 25° SE
Feng Yun 1-1 Rocket 4.2 17:08:58 13° SSE 17:13:59 89° ENE 17:19:33 10° NNW
ADEOS 3.6 17:11:21 24° SSE 17:14:29 64° ENE 17:19:39 10° N
BlueWalker 3 4.2 17:15:14 10° W 17:17:29 16° SW 17:19:29 11° SSW
MOS 1 4.2 17:13:20 17° SSE 17:17:43 84° ENE 17:23:23 10° NNW
Cosmos 1869 Rocket 3.6 17:16:58 29° SSE 17:18:57 54° E 17:23:15 10° NNE
Terra 1.7 17:17:03 27° SSE 17:19:33 73° ENE 17:24:15 10° N
Cosmos 2341 Rocket 4.1 17:17:11 18° SSE 17:21:46 53° E 17:27:50 10° NNE
Cosmos 2237 Rocket 3.8 17:24:08 17° ENE 17:24:08 17° ENE 17:26:05 10° NE
Atlas Centaur 2 4.4 17:19:07 10° SW 17:22:33 15° SSW 17:25:12 12° S
Cosmos 2322 3.6 17:19:42 10° S 17:25:20 65° ESE 17:31:00 10° NNE
CZ-4 R/B 2.4 17:25:08 13° SSW 17:28:14 40° W 17:31:50 10° NNW
IRS-1A Rocket 4.2 17:26:31 32° SE 17:29:09 68° ENE 17:34:44 10° N
Okean O Rocket 1.9 17:29:29 44° E 17:30:03 47° ENE 17:34:14 10° N
ASTEX 1 4.3 17:32:11 29° ENE 17:32:11 29° ENE 17:36:19 10° NNE
SL-08 R/B 3.2 17:27:21 10° NNE 17:32:15 80° ESE 17:36:20 15° S
Meteor 1-21 Rocket 4.4 17:29:23 10° N 17:34:51 51° ENE 17:36:17 41° ESE
Cosmos 2219 Rocket 3.6 17:33:04 10° SW 17:38:15 39° WNW 17:43:27 10° N
Cosmos 1680 Rocket 3.4 17:35:13 10° NNW 17:40:27 88° ENE 17:42:08 44° SSE
CZ-4B R/B 4.4 17:42:10 21° NE 17:42:10 21° NE 17:43:52 10° NNE
SPOT 3 Rocket 4.4 17:41:05 32° ENE 17:41:24 33° ENE 17:46:00 10° N
SL-8 Rocket 3.9 17:44:34 16° S 17:49:37 90° E 17:55:56 10° N
BREEZE-M DEB (TANK) 4.3 17:48:19 10° NW 17:50:01 20° N 17:50:01 20° N
NOSS 2-3 (E) 4.3 17:48:20 10° NW 17:53:40 84° NE 17:55:36 49° SE
NOSS 0 Rocket 3.8 17:49:30 20° S 17:53:49 64° ESE 17:59:59 10° NNE
SL-24 R/B - RUBIN 2 3.4 17:49:43 10° NNW 17:54:11 87° ENE 17:54:30 78° SE
COSMOS 2428 2.7 17:49:15 10° SSW 17:54:59 85° WNW 18:00:45 10° NNE
CZ-4B R/B 3.8 17:53:16 24° SSW 17:56:25 54° W 18:01:55 10° NNW
NOSS 2-3 (C) 4.4 17:51:34 10° NNW 17:56:48 69° NE 17:58:25 51° ESE
Cosmos 2112 Rocket 3.9 17:52:45 10° NNW 17:57:58 79° WSW 17:59:00 57° S
Cosmos 1727 Rocket 4.4 17:52:34 10° N 17:58:36 43° ENE 17:59:04 42° E
Cosmos 2366 rocket 3.9 17:55:28 23° S 17:59:34 84° W 18:05:46 10° N
Cosmos 1241 Rocket 4.4 17:53:35 10° NNW 17:59:52 74° ENE 18:01:17 55° ESE
USA 245 4.4 18:04:11 38° NNE 18:04:11 38° NNE 18:07:17 10° N
NOSS 3-2 (C) 4.2 17:57:40 10° NW 18:05:16 73° WSW 18:08:57 39° SSE
Cosmos 2278 Rocket 2.4 18:00:04 10° NNW 18:05:38 54° ENE 18:05:59 53° ENE
Ariane Rocket 3.7 18:06:44 40° NE 18:06:44 40° NE 18:10:54 10° N
USA 32 4.0 18:13:32 63° SSW 18:14:21 78° W 18:19:36 10° N
Spot 2 Rocket 3.7 18:13:51 55° SW 18:14:37 63° WSW 18:19:37 10° NNW
NOSS 2-3 (D) 4.4 18:10:40 10° NW 18:16:03 73° WSW 18:17:12 59° S
Cosmos 2218 Rocket 4.4 18:21:24 25° SSW 18:24:56 59° W 18:31:00 10° N
Lacrosse 5 rocket 3.6 18:25:06 10° WNW 18:27:16 17° NNW 18:27:17 17° NNW
Meteor 2-15 Rocket 4.3 18:29:48 69° SSW 18:30:35 83° W 18:36:42 10° N
Cosmos 1943 Rocket 2.1 18:25:51 10° NNW 18:31:28 79° W 18:31:28 79° W
USA 59 Rocket 2.3 18:31:02 10° N 18:31:45 14° N 18:31:45 14° N
NOSS 3-4 (A) 4.0 18:35:57 40° NE 18:35:57 40° NE 18:39:33 10° NE
NOSS 3-4 (C) 4.0 18:36:30 39° NE 18:36:30 39° NE 18:40:05 10° NE
Meteor 1-11 4.1 18:28:58 10° NNW 18:34:17 79° NW 18:34:17 79° NW
IRS-1C Rocket 4.3 18:40:00 66° N 18:40:00 66° N 18:44:32 10° NNW
SeaSat 1 3.9 18:40:17 29° NNE 18:40:17 29° NNE 18:43:34 10° N
Cosmos 1821 Rocket 4.3 18:37:50 47° SW 18:39:31 63° W 18:45:47 10° N
CZ-4B R/B 3.9 18:40:30 57° NNW 18:40:30 57° NNW 18:44:24 10° NNW
Cosmos 1733 Rocket 4.3 18:41:28 39° NW 18:41:28 39° NW 18:44:38 10° N
Okean-O 4.2 18:43:16 29° W 18:43:16 29° W 18:46:50 10° NW
Cosmos 2239 Rocket 4.4 18:44:54 80° NNE 18:44:54 80° NNE 18:50:44 10° N
Timation 2 Rocket 4.0 18:45:14 10° NNW 18:51:22 79° W 18:51:22 79° W
Cosmos 2237 Rocket 2.8 19:05:49 54° NW 19:05:49 54° NW 19:11:03 10° NNE
Cosmos 1980 4.4 19:06:16 50° WNW 19:06:18 50° WNW 19:11:48 10° NNE
Okean O Rocket 4.0 19:06:43 16° W 19:06:43 16° W 19:09:11 10° NW
Cosmos 2369 Rocket 3.7 19:35:59 10° NNW 19:39:12 31° N 19:39:12 31° N
USA 238 DEB 4.4 19:38:28 10° NW 19:44:50 53° W 19:44:50 53° W
USA 238 4.4 19:38:37 10° NW 19:45:00 54° W 19:45:00 54° W
Cosmos 2278 Rocket 4.2 19:45:01 10° NW 19:47:49 20° W 19:47:49 20° W
SL-16 R/B 3.9 20:16:16 28° N 20:16:16 28° N 20:19:00 10° NNE
NOSS 3-1 (C) 4.4 20:35:56 10° NNW 20:41:26 57° NNW 20:41:26 57° NNW
COSMOS 2455 4.4 20:58:46 10° NNW 21:02:10 31° N 21:02:10 31° N
NOSS 3-1 (A) 4.4 21:26:58 10° NNW 21:32:38 58° N 21:32:38 58° N
ACS3 Solar Sail 3.0 21:53:06 10° NNE 21:56:52 36° NE 21:56:52 36° NE
USA 267 3.7 22:10:22 10° NE 22:15:28 57° NE 22:15:28 57° NE
ATLAS 2AS CENTAUR R/B 3.2 22:32:27 54° ENE 22:32:27 54° ENE 22:37:57 10° NE
IDEFIX/ARIANE 42P 3.9 22:34:12 10° NNE 22:37:18 36° NNE 22:37:18 36° NNE
USA 281 3.6 22:41:15 54° NNW 22:41:15 54° NNW 22:46:10 10° NNW
Resurs 1-4 Rocket 4.1 22:38:15 10° NE 22:42:06 20° E 22:42:07 20° E
Cosmos 1833 Rocket 3.6 22:44:45 44° NNE 22:44:45 44° NNE 22:48:30 10° NNE
Cosmos 1464 Rocket 4.5 22:44:57 55° N 22:44:57 55° N 22:49:39 10° N
USA 234 3.4 22:45:45 10° ESE 22:52:13 69° NE 22:58:44 10° NW
Nadezhda 4 Rocket 4.4 22:49:06 10° N 22:53:47 54° NNW 22:53:47 54° NNW
Cosmos 2034 Rocket 4.2 22:58:19 70° NE 22:58:19 70° NE 23:03:57 10° N
FENGYUN 3A 4.3 22:57:22 10° NNE 23:01:32 54° NNE 23:01:32 54° NNE
Cosmos 2195 Rocket 4.5 23:06:27 10° N 23:12:21 78° N 23:12:21 78° N
NPP 4.1 23:10:03 10° N 23:14:15 55° N 23:14:15 55° N
CZ-2D R/B 3.0 23:17:49 10° NNE 23:22:43 40° E 23:23:08 40° ESE
Cosmos 1697 Rocket 3.8 23:21:48 10° NNW 23:24:52 33° NW 23:24:52 33° NW
Cosmos 1092 Rocket 3.8 23:21:41 10° N 23:27:53 83° E 23:28:16 78° SE
Cosmos 2026 Rocket 3.8 23:22:53 10° N 23:29:02 82° W 23:29:02 82° W
BREEZE-M DEB (TANK) 4.2 23:31:11 26° NNE 23:31:11 26° NNE 23:35:25 10° ENE
Cosmos 1867 3.5 23:37:22 80° NNE 23:37:22 80° NNE 23:42:32 10° NNE
Meteor 1-26 Rocket 4.1 23:39:28 73° ESE 23:39:42 75° E 23:45:05 10° NNE
ACS3 Solar Sail 3.1 23:36:10 10° NNW 23:40:25 26° NW 23:40:25 26° NW
Cosmos 1980 Rocket 2.3 23:37:22 10° NNW 23:43:05 75° ENE 23:45:54 31° SE
Cosmos 1302 Rocket 4.1 23:43:46 64° NNW 23:43:46 64° NNW 23:48:26 10° NNE
BREEZE-M DEB (TANK) 4.1 23:55:33 41° WNW 23:56:33 46° NW 23:59:37 10° NE
